RH
83 99 90 95 88 92 85 96 97 94 59 57 56 57 57 55 48 42 35 27 28 30 28 22 17 23 39 74 78 77 81 80 74 83 84 84 91 71 67 80 90 88 75
79 94 91 97 79 86 77 98 96 76 68 66 55 43 35 27 22 20 16 15 15 16 15 14 18 15 22 77 78 76 60 60 64 74 78 82 68 76 77 68 89 83 78
86 92 97 92 72 83 97 97 66 64 51 37 28 24 18 16 14 13 13 13 13 15 14 16 17 44 91 87 76 48 53 59 64 58 79 89 72 51 59 56 59 85 83
88 92 95 72 81 90 95 85 64 48 33 28 25 26 28 31 16 14 13 14 12 13 33 54 24 82 98 90 53 58 45 39 46 55 75 81 91 46 30 29 29 47 76
90 92 92 65 87 95 90 76 59 36 24 32 47 69 62 68 71 38 26 15 12 13 18 30 58 92 98 73 48 43 33 28 26 72 83 87 91 61 33 37 44 26 44
84 92 61 88 97 87 99 78 53 31 35 72 84 84 69 91 99 72 14 12 12 16 16 22 44 89 89 53 46 46 35 27 58 84 83 90 93 71 59 34 42 38 36
92 91 62 90 99 87 98 80 49 67 93 89 85 86 97 97 100 47 18 18 17 18 19 19 24 54 57 39 38 37 30 26 77 83 85 89 94 94 96 97 76 54 40
93 88 82 94 87 87 96 81 75 100 99 93 92 97 99 98 76 23 20 19 18 19 24 21 24 28 30 27 26 26 25 29 82 84 87 97 95 97 96 87 96 98 68
94 93 91 93 92 87 94 78 97 100 100 93 93 100 99 74 26 20 20 20 20 22 23 22 24 25 24 26 27 26 28 53 84 85 83 88 72 96 95 96 72 95 90
96 95 99 97 87 85 94 90 94 99 100 99 99 100 82 28 20 20 22 22 22 23 21 22 22 24 26 27 28 34 54 90 91 97 97 95 86 90 93 94 96 96 99
99 94 97 96 85 86 100 96 99 98 99 99 100 92 39 64 26 22 25 23 23 23 23 24 26 27 27 28 35 46 80 93 96 95 96 87 69 90 94 95 98 79 91
97 90 86 93 94 86 96 95 100 99 98 99 100 89 90 85 49 36 21 23 23 23 25 26 30 32 50 60 51 73 88 88 95 98 83 61 73 86 88 70 73 58 70
99 90 88 92 94 86 91 94 99 100 100 98 100 95 92 74 23 22 23 25 24 26 55 30 35 47 84 87 86 80 84 94 90 98 75 72 82 90 84 79 92 90 95
75 83 82 90 91 87 93 87 89 97 96 98 98 93 56 47 34 30 32 36 30 67 82 33 48 74 87 89 90 84 90 93 86 83 83 82 92 92 66 78 93 95 93
79 80 85 98 98 95 84 86 82 95 94 92 61 68 43 30 30 29 26 23 26 27 31 33 41 63 72 78 95 92 97 99 96 87 85 80 85 71 63 95 97 87 79
84 80 78 91 99 98 92 88 77 63 94 87 46 32 38 32 28 26 24 23 23 26 30 36 44 64 68 66 75 80 71 96 94 98 91 87 86 84 92 98 96 78 88
70 77 76 92 96 99 100 97 84 68 44 50 32 29 31 30 28 25 26 26 26 29 34 39 45 55 61 65 65 71 71 98 99 99 96 92 100 100 99 97 87 80 81
88 82 92 97 98 95 86 99 99 82 47 38 32 28 29 27 29 27 24 26 30 31 35 42 43 54 59 67 71 64 54 70 91 99 99 92 100 100 100 97 86 75 85
51 52 69 88 88 83 60 78 100 92 61 32 32 28 28 26 27 28 28 27 30 35 39 45 50 54 55 61 69 61 53 47 55 96 98 100 100 100 97 94 88 73 84
36 52 56 63 77 71 74 95 86 100 74 37 27 29 27 27 26 26 28 30 32 39 44 48 51 55 56 48 61 55 43 34 33 50 99 98 99 100 99 96 96 84 86
31 43 55 64 72 87 92 96 83 99 88 44 25 26 29 29 27 27 28 30 34 36 44 48 55 57 59 46 41 39 43 43 38 35 42 88 99 98 97 97 99 81 86
31 42 65 72 83 93 88 71 88 85 85 48 33 25 33 33 29 30 30 29 29 37 48 52 57 64 54 44 52 53 67 56 46 40 36 40 79 70 94 98 98 85 88
39 35 83 77 91 79 87 83 99 100 96 67 46 28 28 40 40 39 36 33 32 36 38 52 54 62 56 52 47 61 64 55 68 49 50 47 56 90 98 100 99 92 79
44 77 82 98 89 84 99 92 99 97 89 58 31 24 27 40 43 45 46 42 37 34 42 48 50 51 53 47 51 38 44 46 57 66 52 52 56 61 68 79 99 93 74
83 93 72 79 83 100 100 78 71 100 90 59 36 32 29 38 44 46 45 48 44 40 38 46 53 56 56 51 43 38 43 41 50 60 66 54 54 58 58 56 53 52 45
95 82 99 100 100 99 98 94 91 96 93 61 38 39 29 28 37 43 47 45 47 45 41 38 44 52 52 56 49 42 41 39 37 40 58 69 62 52 55 60 61 56 50
Wind_Speed
14 21 24 23 21 20 18 18 16 17 16 15 14 13 12 11 11 11 11 12 12 10 9 8 7 6 7 12 11 11 13 13 15 16 14 13 13 12 13 14 16 15 13
16 22 26 24 22 18 16 18 17 16 16 15 13 13 12 12 12 12 11 11 10 9 8 8 9 9 9 13 12 12 12 13 13 11 10 10 12 13 13 13 15 16 15
17 22 27 24 22 19 18 19 17 16 14 13 12 11 11 12 12 12 11 11 11 11 11 12 11 13 15 15 13 12 12 12 12 11 15 11 10 7 8 8 11 15 15
19 23 23 25 22 22 20 18 17 15 14 13 12 12 11 11 12 12 12 12 12 13 13 13 13 18 16 16 15 13 12 11 11 14 12 12 12 8 7 6 6 8 13
20 23 24 24 23 23 20 17 16 15 14 13 13 14 13 13 13 13 13 13 14 14 14 14 16 18 15 15 14 13 12 11 11 13 12 12 11 10 10 10 9 7 9
19 22 26 24 26 24 19 18 15 15 14 15 15 15 15 15 15 14 14 14 15 15 15 15 17 17 13 13 12 11 10 10 14 13 13 13 12 11 11 10 10 9 11
20 23 28 25 27 22 19 17 15 15 17 17 17 16 16 16 17 15 15 15 16 15 15 14 16 16 13 12 11 10 9 12 13 12 13 12 12 14 14 15 12 10 11
20 24 25 25 26 22 20 17 16 18 18 17 17 18 18 18 16 16 16 16 16 15 15 14 14 14 12 11 11 10 11 13 13 13 13 13 14 12 12 14 14 16 14
19 23 23 27 25 23 21 17 17 18 18 18 18 18 18 18 17 16 17 16 16 16 14 14 13 13 12 11 11 12 14 16 13 13 14 11 11 14 12 14 19 19 15
20 23 25 29 26 24 21 18 19 18 17 18 19 19 18 17 16 16 16 16 16 16 15 15 14 13 12 12 14 16 19 21 15 14 13 14 10 10 12 16 17 21 20
20 24 27 29 27 25 23 19 20 19 17 18 19 19 17 16 16 16 17 17 17 16 16 15 14 13 13 15 16 17 18 16 16 16 18 11 10 12 14 17 14 19 17
19 24 26 27 27 26 22 20 20 20 20 21 20 19 16 16 17 17 17 17 17 16 15 15 14 14 16 15 17 20 13 17 15 15 12 10 13 18 16 18 22 22 22
18 25 26 27 26 27 26 20 24 21 24 22 18 19 17 19 20 19 19 19 18 17 15 15 16 16 15 15 14 12 14 13 14 13 16 14 14 17 18 17 18 18 20
22 25 31 28 29 29 28 24 23 16 23 24 21 19 21 21 22 21 21 21 19 18 16 18 17 17 16 14 13 13 15 19 17 18 18 17 15 19 13 15 20 18 14
26 27 31 30 32 32 30 26 22 19 19 20 22 22 23 23 23 22 22 22 21 20 18 19 19 19 18 15 15 15 16 16 17 18 17 18 15 10 11 18 15 11 8
25 26 30 33 31 33 30 27 23 22 20 21 23 24 24 23 23 23 23 22 22 22 21 20 20 20 19 17 18 17 16 18 17 16 17 16 16 16 19 16 12 6 7
27 26 29 33 35 35 29 26 25 24 23 24 25 25 25 24 23 23 23 23 23 23 22 21 20 20 20 19 18 17 15 15 15 14 15 16 14 20 17 12 7 1 8
26 27 29 32 33 35 19 26 25 26 24 26 26 26 26 24 23 23 22 23 23 23 22 21 20 21 20 20 20 17 16 18 17 17 17 16 19 21 17 10 5 3 11
31 29 33 36 37 39 41 28 32 29 28 28 28 28 27 26 25 24 24 24 23 23 23 23 22 21 22 21 20 18 17 17 17 19 18 17 18 16 12 6 6 7 9
35 34 35 36 37 44 45 45 35 35 32 31 30 30 29 28 26 25 25 24 24 24 25 24 23 22 21 22 21 19 17 17 18 20 22 19 14 12 10 8 8 8 13
33 36 38 36 30 40 43 47 44 43 36 33 33 33 32 30 29 28 27 26 26 25 26 25 25 25 25 24 24 20 16 15 16 18 18 21 18 16 15 12 8 9 10
28 35 37 37 29 33 40 52 45 42 39 37 37 36 34 32 30 29 28 27 26 27 28 28 29 28 26 26 19 17 11 12 14 15 17 18 19 20 17 15 12 10 11
28 32 36 39 31 31 39 44 41 34 40 38 39 36 35 33 31 29 27 28 28 29 28 30 30 30 28 29 24 9 7 8 15 16 16 16 17 18 18 18 17 15 14
25 26 33 36 39 38 45 47 48 47 49 44 40 38 38 34 32 31 29 27 27 28 29 30 29 29 27 28 26 21 11 10 10 10 18 18 17 18 20 19 19 18 16
17 22 24 31 32 46 58 51 48 47 46 41 41 41 38 35 32 31 30 28 29 29 29 30 31 30 29 28 30 29 16 11 11 9 13 21 21 20 20 20 20 20 18
13 17 15 19 32 35 37 43 50 49 47 42 39 38 36 36 35 33 31 31 31 29 29 29 30 31 29 29 28 27 26 17 14 10 7 15 18 22 22 22 21 21 20
Wind_Direction
191 181 182 188 176 181 178 171 168 170 177 182 190 195 196 203 206 207 207 209 210 211 211 206 193 170 151 134 134 134 133 126 126 122 121 117 107 109 106 99 85 82 89
189 181 182 185 179 190 188 174 171 179 184 190 201 202 202 202 205 204 205 204 203 200 188 175 167 169 143 137 155 145 139 132 130 133 122 108 100 105 102 98 94 90 87
178 178 179 182 175 187 186 178 187 194 202 205 203 199 195 190 190 191 190 185 181 173 168 162 158 135 137 151 147 135 130 131 128 117 97 99 95 115 116 107 97 100 92
177 175 177 177 177 191 198 190 195 202 203 199 196 188 183 177 176 177 176 171 165 158 147 149 141 132 138 130 130 123 119 119 120 106 99 95 90 99 109 114 122 124 109
177 175 179 171 186 195 203 197 201 202 198 189 182 169 170 164 158 164 162 158 153 153 152 142 134 135 136 133 128 128 121 114 114 101 101 96 92 94 99 101 93 122 139
182 178 177 178 191 201 206 202 202 197 185 170 166 167 163 156 154 157 157 150 146 150 144 140 135 137 152 136 132 129 118 111 103 105 99 105 102 96 97 108 117 109 105
183 180 176 185 195 203 211 201 196 178 174 173 170 164 156 156 157 162 152 149 147 149 146 145 143 148 151 140 137 134 124 118 109 104 101 99 98 98 97 92 95 96 97
185 180 184 192 198 205 216 199 184 176 175 173 168 160 160 163 168 159 155 154 150 149 150 148 147 148 147 146 143 138 130 118 106 106 102 112 104 96 97 108 101 87 85
185 183 186 194 200 209 216 198 180 182 180 170 165 168 168 172 168 162 159 157 152 153 155 153 154 153 152 150 143 136 123 117 108 110 103 101 118 104 104 93 108 98 84
187 188 191 199 200 208 210 201 182 186 183 173 171 175 175 171 171 165 164 161 158 161 158 159 159 156 151 144 135 127 118 97 107 108 120 101 102 114 105 113 112 117 111
190 193 196 201 201 208 204 193 184 184 184 179 180 183 176 170 169 166 172 167 165 165 165 163 159 153 145 138 132 133 117 117 116 119 124 99 85 103 98 112 109 125 114
201 201 201 202 201 210 205 196 188 187 182 186 187 184 171 174 174 175 174 171 172 170 170 163 155 152 140 137 133 130 118 131 125 97 116 98 101 115 103 93 100 100 109
206 205 203 203 204 216 210 196 190 193 187 184 186 182 182 179 179 179 175 174 176 173 165 162 158 156 150 141 137 135 131 130 130 112 121 112 115 112 109 105 105 108 112
216 219 209 208 210 216 217 220 206 194 197 191 197 191 187 184 181 180 178 177 175 167 167 165 162 156 152 140 134 132 131 130 131 131 120 113 118 125 105 121 121 123 125
223 224 217 213 214 214 221 222 225 200 197 196 197 198 198 193 189 184 185 181 179 177 173 171 168 163 158 148 139 138 135 134 131 138 130 122 127 134 137 130 130 123 104
223 224 230 225 222 213 214 217 225 215 203 202 201 202 201 199 196 190 187 183 180 178 175 174 170 167 164 158 153 150 150 149 141 139 142 134 130 127 138 134 130 115 96
226 226 230 228 224 208 193 207 217 223 218 212 206 203 204 202 199 195 190 184 181 178 177 175 174 172 171 167 165 161 152 153 148 143 150 147 141 137 149 152 151 5 99
223 222 222 221 216 211 238 214 213 218 220 220 210 205 203 203 201 198 193 189 184 182 181 180 177 176 175 174 173 171 165 163 162 158 147 153 151 153 148 160 139 81 122
229 229 225 224 221 222 245 247 220 217 218 216 214 207 203 202 201 200 195 191 189 189 186 186 183 185 180 178 177 176 173 170 170 171 161 155 158 155 156 155 136 146 142
235 232 225 229 231 237 218 238 230 226 216 213 213 210 203 202 201 198 197 195 194 194 193 191 191 187 188 181 178 177 174 174 175 176 182 178 166 165 162 177 140 136 138
237 230 227 235 235 222 219 218 222 224 215 212 210 211 205 204 200 198 199 200 199 199 200 196 194 192 186 184 174 167 165 170 176 181 186 195 188 189 197 198 162 169 180
234 228 222 229 228 216 218 214 221 216 217 215 209 208 205 203 202 202 202 202 203 201 200 200 199 192 193 184 177 165 154 170 181 183 189 192 201 205 199 191 201 199 186
230 233 220 227 229 239 229 221 217 210 206 206 207 205 207 206 204 206 206 206 205 206 204 205 202 204 196 188 187 174 161 179 175 189 192 192 194 198 198 195 206 213 217
233 228 225 227 233 245 230 209 209 208 205 211 209 206 206 206 206 209 210 210 211 211 208 210 209 211 212 205 195 198 194 188 173 177 200 201 201 201 203 206 212 221 224
216 223 235 245 241 221 201 208 213 217 212 211 208 208 207 207 210 213 214 214 214 214 214 214 214 213 216 217 212 205 206 194 181 167 184 202 205 208 209 210 215 220 222
209 218 229 217 194 192 202 208 213 216 210 211 211 208 209 211 212 213 215 217 217 219 218 219 220 221 221 218 221 221 219 213 211 203 177 198 202 212 214 217 218 219 222